sat.trackr.live / text

‹ back to catalog

BEIDOU-3 M3 (C21)

NORAD 43208 · 2018-018B

PAYLOAD ACTIVE UNKNOWN

§ Identity

Operator
Country
PRC
Launch date
2018-02-12
Launch site
XICLF
Launch vehicle
Mass (kg)
RCS (m²)

Purposes: nav

External: N2YO · Heavens-Above · Gunter

§ Orbital elements

Epoch: 2026-05-24T02:30:49.490208Z

Period
773.23 min
Inclination
56.6307°
Eccentricity
0.0009455
Mean motion
1.86230995 rev/d
Perigee alt
21,501.7 km
Apogee alt
21,554.4 km
Semi-major
27,906.2 km
B*
0.0000e+0
RAAN
63.9459°
Arg perigee
336.3998°
Mean anomaly
23.5513°
Rev number
5,629

§ Raw data

BEIDOU-3 M3 (C21)1 43208U 18018B   26144.10473947 -.00000065  00000+0  00000+0 0  99972 43208  56.6307  63.9459 0009455 336.3998  23.5513  1.86230995 56290

JSON: /api/v1/satellites/43208 · /tle

For live sub-satellite position, see the globe view (requires WebGL).

§ Visibility from observer

Set your observer location to see the next 7 days of passes ≥ 10°. The values pass through the URL so the page stays shareable.

No JS? Fill the form by hand. The geolocation button needs JavaScript.